Location: Joffre
(52.3362°N, 113.5373°W)
Time: 10:28:14
(UTC+00:00)

N. Korean satellite - Pass Details

Date: 02 December 2021
Orbit: 447 x 491 km, 97.3° (Epoch: 20 January)

Event Time Altitude Azimuth Distance (km) Brightness Sun altitude
Rises 12:02:16 0° 26° (NNE) 2,478 10.5 -29.6°
Reaches altitude 10° 12:04:46 10° 45° (NE) 1,593 9.7 -29.2°
Maximum altitude 12:07:15 19° 92° (E) 1,153 9.2 -28.8°
Drops below altitude 10° 12:09:42 10° 139° (SE) 1,575 9.6 -28.5°
Sets 12:12:09 0° 158° (SSE) 2,439 10.4 -28.1°
